Regional Weather Roundup
Issued by NWS

Home | Current Version | Previous Version | Text Only | Print | Product List | Glossary On
Versions: 1 2 3 4 5 6 7 8 9 10 11 12 13 14 15 16 17 18 19 20 21 22 23 24 25 26 27 28 29 30 31 32 33 34 35 36 37 38 39 40 41 42 43 44 45 46 47 48 49 50
000
ASUS42 KFFC 302110
RWRGA
WEATHER ROUNDUP FOR GEORGIA
NATIONAL WEATHER SERVICE PEACHTREE CITY GA
500 PM EDT SUN AUG 30 2015

NOTE: "FAIR" INDICATES FEW OR NO CLOUDS BELOW 12,000 FEET WITH NO
SIGNIFICANT WEATHER AND/OR OBSTRUCTIONS TO VISIBILITY.

* = USE WITH CAUTION. THE STATIONS MARKED WITH AN ASTERISK MAY NOT
REPORT WEATHER SUCH AS PRECIPITATION, FOG, OR THUNDER AND ARE NOT
QUALITY CONTROLLED BY NWS.

THE REMARK "TC" DENOTES TEMPERATURE READING IN DEGREES CELSIUS.

GAZ001>058-302200-
NORTH GEORGIA

CITY           SKY/WX    TMP DP  RH WIND       PRES   REMARKS
ATLANTA        CLOUDY    74  66  76 E9        30.10S
ATHENS         CLOUDY    70  67  90 E7        30.10S
CHAMBLEE       CLOUDY    73  65  75 VRB3      30.11S
PEACHTREE CITY CLOUDY    74  68  81 CALM      30.09F
ROME           LGT RAIN  75  64  68 S12       30.09F
WEST ATLANTA     N/A     72  65  78 NE7       30.10S
GAINESVILLE    CLOUDY    69  64  84 E10       30.15F
CARTERSVILLE   CLOUDY    73  62  68 NE7       30.11F


CITY           SKY/WX    TMP DP  RH WIND       PRES   REMARKS
DALTON*        CLOUDY    75  64  69 CALM      30.11S
MARIETTA       CLOUDY    72  64  75 E5        30.11F
KENNESAW*      PTSUNNY   73  61  64 SE100     30.13S
BLAIRSVILLE*     N/A     66  55  67 CALM      30.15F
$$

GAZ059>098-102>109-302200-
CENTRAL GEORGIA

CITY           SKY/WX    TMP DP  RH WIND       PRES   REMARKS
AUGUSTA-BUSH   RAIN      75  73  93 SE6       30.04F FOG
AUGUSTA-DANIEL HVY RAIN  83  72  69 NE8       30.06S
COLUMBUS       MOSUNNY   87  64  46 NW7       30.01F
MACON          MOSUNNY   83  70  64 NE7       30.03F
ROBINS AFB     PTSUNNY   84  73  68 N8        30.02F HX  90


CITY           SKY/WX    TMP DP  RH WIND       PRES   REMARKS
LAGRANGE*      PTSUNNY   80  76  88 E5        30.05F
SYLVANIA*      CLOUDY    77  76  96 SE6       30.08R
MILLEDGEVILLE* SUNNY     79  70  73 NE5       30.06F
$$

GAZ099>101-110>166-302200-
SOUTH GEORGIA

CITY           SKY/WX    TMP DP  RH WIND       PRES   REMARKS
SAVANNAH       CLOUDY    77  73  87 E16       30.05F
VALDOSTA       PTSUNNY   91  71  51 N5        29.98F HX  97
ALMA           PTSUNNY   83  75  77 SE8       30.01F HX  90
ST SIMONS      CLOUDY    80  74  81 E14       30.03R
FT STEWART     CLOUDY    80  73  79 E13G22    30.02F
ALBANY         MOSUNNY   90  68  48 NW5       30.01F HX  94
HUNTER AFB     CLOUDY    77  77 100 E15       30.02F
MOODY AFB      MOSUNNY   90  70  50 N5        29.97F HX  95
BRUNSWICK      CLOUDY    79  75  89 E8        30.03F


CITY           SKY/WX    TMP DP  RH WIND       PRES   REMARKS
BAINBRIDGE*    SUNNY     90  70  51 NW6       29.99F HX  95
MOULTRIE*      SUNNY     90  70  51 W3        29.99F HX  95
VIDALIA*       CLOUDY    77  73  88 NE3       30.07R
WAYCROSS*      MOSUNNY   87  78  74 E13       30.00F HX  99
DOUGLAS*       CLOUDY    86  73  66 E10       30.01F HX  93
$$


USA.gov is the U.S. government's official web portal to all federal, state and local government web resources and services.